Time,TemperatureF,DewpointF,PressureIn,WindDirection,WindDirectionDegrees,WindSpeedMPH,WindSpeedGustMPH,Humidity,HourlyPrecipIn,Conditions,Clouds,dailyrainin,SoftwareType,DateUTC
2013-09-17 00:01:00,58.0,46.0,30.18,NE,45,7.0,15.0,64,0.00,,,0.00,Rainwise IP-100,2013-09-17 04:01:00,
2013-09-17 00:02:00,58.0,46.0,30.18,East,90,12.0,15.0,64,0.00,,,0.00,Rainwise IP-100,2013-09-17 04:02:00,
2013-09-17 00:04:00,59.0,47.0,30.18,NNE,22,16.0,21.0,64,0.00,,,0.00,Rainwise IP-100,2013-09-17 04:04:00,
2013-09-17 00:09:00,59.0,47.0,30.18,North,360,17.0,18.0,64,0.00,,,0.00,Rainwise IP-100,2013-09-17 04:09:00,
2013-09-17 00:14:00,58.0,43.0,30.18,North,360,6.0,22.0,58,0.00,,,0.00,Rainwise IP-100,2013-09-17 04:14:00,
2013-09-17 00:19:00,57.0,44.0,30.18,NE,45,6.0,22.0,61,0.00,,,0.00,Rainwise IP-100,2013-09-17 04:19:00,
2013-09-17 00:24:00,56.0,40.0,30.20,North,360,19.0,29.0,56,0.00,,,0.00,Rainwise IP-100,2013-09-17 04:24:00,
2013-09-17 00:29:00,56.0,44.0,30.20,North,360,20.0,29.0,64,0.00,,,0.00,Rainwise IP-100,2013-09-17 04:29:00,
2013-09-17 00:34:00,57.0,46.0,30.20,NE,45,3.0,21.0,65,0.00,,,0.00,Rainwise IP-100,2013-09-17 04:34:00,
2013-09-17 00:39:00,56.0,44.0,30.20,NE,45,14.0,21.0,65,0.00,,,0.00,Rainwise IP-100,2013-09-17 04:39:00,
2013-09-17 00:44:00,56.0,44.0,30.20,North,360,20.0,20.0,64,0.00,,,0.00,Rainwise IP-100,2013-09-17 04:44:00,
2013-09-17 00:49:00,56.0,46.0,30.21,NNE,22,12.0,23.0,68,0.00,,,0.00,Rainwise IP-100,2013-09-17 04:49:00,
2013-09-17 00:54:00,56.0,43.0,30.21,NNE,22,16.0,23.0,63,0.00,,,0.00,Rainwise IP-100,2013-09-17 04:54:00,
2013-09-17 00:59:00,55.0,43.0,30.22,ENE,67,7.0,21.0,63,0.00,,,0.00,Rainwise IP-100,2013-09-17 04:59:00,
2013-09-17 01:05:00,56.0,44.0,30.21,North,360,22.0,28.0,65,0.00,,,0.00,Rainwise IP-100,2013-09-17 05:05:00,
2013-09-17 01:10:00,55.0,44.0,30.21,NNE,22,22.0,23.0,65,0.00,,,0.00,Rainwise IP-100,2013-09-17 05:10:00,
2013-09-17 01:15:00,55.0,43.0,30.21,North,360,24.0,24.0,64,0.00,,,0.00,Rainwise IP-100,2013-09-17 05:15:00,
2013-09-17 01:20:00,55.0,43.0,30.22,North,360,10.0,24.0,64,0.00,,,0.00,Rainwise IP-100,2013-09-17 05:20:00,
2013-09-17 01:25:00,56.0,44.0,30.22,NNW,337,10.0,19.0,64,0.00,,,0.00,Rainwise IP-100,2013-09-17 05:25:00,
2013-09-17 01:30:00,56.0,45.0,30.22,North,360,2.0,17.0,66,0.00,,,0.00,Rainwise IP-100,2013-09-17 05:30:00,
2013-09-17 01:35:00,57.0,46.0,30.22,NNW,337,6.0,17.0,67,0.00,,,0.00,Rainwise IP-100,2013-09-17 05:35:00,
2013-09-17 01:40:00,56.0,44.0,30.22,North,360,10.0,20.0,64,0.00,,,0.00,Rainwise IP-100,2013-09-17 05:40:00,
2013-09-17 01:45:00,57.0,47.0,30.21,NNE,22,9.0,17.0,68,0.00,,,0.00,Rainwise IP-100,2013-09-17 05:45:00,
2013-09-17 01:50:00,56.0,44.0,30.21,ENE,67,16.0,25.0,64,0.00,,,0.00,Rainwise IP-100,2013-09-17 05:50:00,
2013-09-17 01:55:00,57.0,44.0,30.21,North,360,10.0,23.0,61,0.00,,,0.00,Rainwise IP-100,2013-09-17 05:55:00,
2013-09-17 02:00:00,57.0,44.0,30.21,NNE,22,18.0,23.0,61,0.00,,,0.00,Rainwise IP-100,2013-09-17 06:00:00,
2013-09-17 02:05:00,57.0,47.0,30.22,North,360,3.0,26.0,68,0.00,,,0.00,Rainwise IP-100,2013-09-17 06:05:00,
2013-09-17 02:10:00,57.0,46.0,30.22,NNE,22,13.0,26.0,66,0.00,,,0.00,Rainwise IP-100,2013-09-17 06:10:00,
2013-09-17 02:15:00,57.0,45.0,30.22,NNE,22,20.0,20.0,63,0.00,,,0.00,Rainwise IP-100,2013-09-17 06:15:00,
2013-09-17 02:21:00,56.0,39.0,30.22,NNE,22,2.0,25.0,53,0.00,,,0.00,Rainwise IP-100,2013-09-17 06:21:00,
2013-09-17 02:26:00,56.0,40.0,30.22,NNE,22,14.0,19.0,56,0.00,,,0.00,Rainwise IP-100,2013-09-17 06:26:00,
2013-09-17 02:31:00,56.0,37.0,30.22,NE,45,1.0,16.0,49,0.00,,,0.00,Rainwise IP-100,2013-09-17 06:31:00,
2013-09-17 02:36:00,57.0,-40.0,30.22,NW,315,16.0,19.0,0,0.00,,,0.00,Rainwise IP-100,2013-09-17 06:36:00,
2013-09-17 02:41:00,56.0,33.0,30.22,NNE,22,3.0,17.0,43,0.00,,,0.00,Rainwise IP-100,2013-09-17 06:41:00,
2013-09-17 02:46:00,57.0,-40.0,30.22,North,360,11.0,17.0,0,0.00,,,0.00,Rainwise IP-100,2013-09-17 06:46:00,
2013-09-17 02:51:00,56.0,33.0,30.22,NNE,22,15.0,28.0,43,0.00,,,0.00,Rainwise IP-100,2013-09-17 06:51:00,
2013-09-17 02:56:00,56.0,33.0,30.22,North,360,7.0,22.0,43,0.00,,,0.00,Rainwise IP-100,2013-09-17 06:56:00,
2013-09-17 03:01:00,56.0,36.0,30.23,NNE,22,10.0,23.0,47,0.00,,,0.00,Rainwise IP-100,2013-09-17 07:01:00,
2013-09-17 03:06:00,56.0,-40.0,30.23,NNE,22,11.0,23.0,0,0.00,,,0.00,Rainwise IP-100,2013-09-17 07:06:00,
2013-09-17 03:11:00,55.0,33.0,30.23,ENE,67,14.0,19.0,44,0.00,,,0.00,Rainwise IP-100,2013-09-17 07:11:00,
2013-09-17 03:16:00,55.0,28.0,30.24,North,360,9.0,19.0,34,0.00,,,0.00,Rainwise IP-100,2013-09-17 07:16:00,
2013-09-17 03:21:00,55.0,29.0,30.24,NNW,337,9.0,25.0,37,0.00,,,0.00,Rainwise IP-100,2013-09-17 07:21:00,
2013-09-17 03:26:00,55.0,29.0,30.24,North,360,7.0,12.0,37,0.00,,,0.00,Rainwise IP-100,2013-09-17 07:26:00,
2013-09-17 03:31:00,55.0,32.0,30.24,NNE,22,9.0,13.0,40,0.00,,,0.00,Rainwise IP-100,2013-09-17 07:31:00,
2013-09-17 03:37:00,55.0,32.0,30.24,NNE,22,12.0,26.0,40,0.00,,,0.00,Rainwise IP-100,2013-09-17 07:37:00,
2013-09-17 03:42:00,55.0,31.0,30.25,North,360,12.0,26.0,38,0.00,,,0.00,Rainwise IP-100,2013-09-17 07:42:00,
2013-09-17 03:47:00,55.0,32.0,30.25,North,360,18.0,20.0,40,0.00,,,0.00,Rainwise IP-100,2013-09-17 07:47:00,
2013-09-17 03:52:00,55.0,31.0,30.25,NNE,22,16.0,24.0,39,0.00,,,0.00,Rainwise IP-100,2013-09-17 07:52:00,
2013-09-17 03:57:00,54.0,29.0,30.25,NE,45,6.0,24.0,38,0.00,,,0.00,Rainwise IP-100,2013-09-17 07:57:00,
2013-09-17 04:02:00,55.0,28.0,30.25,NNE,22,6.0,26.0,34,0.00,,,0.00,Rainwise IP-100,2013-09-17 08:02:00,
2013-09-17 04:07:00,54.0,28.0,30.26,North,360,12.0,23.0,36,0.00,,,0.00,Rainwise IP-100,2013-09-17 08:07:00,
2013-09-17 04:12:00,54.0,28.0,30.26,North,360,10.0,22.0,36,0.00,,,0.00,Rainwise IP-100,2013-09-17 08:12:00,
2013-09-17 04:17:00,54.0,28.0,30.26,ESE,112,7.0,22.0,36,0.00,,,0.00,Rainwise IP-100,2013-09-17 08:17:00,
2013-09-17 04:22:00,54.0,24.0,30.26,North,360,12.0,22.0,31,0.00,,,0.00,Rainwise IP-100,2013-09-17 08:22:00,
2013-09-17 04:27:00,54.0,24.0,30.26,NE,45,6.0,15.0,30,0.00,,,0.00,Rainwise IP-100,2013-09-17 08:27:00,
2013-09-17 04:32:00,54.0,29.0,30.25,ENE,67,10.0,19.0,38,0.00,,,0.00,Rainwise IP-100,2013-09-17 08:32:00,
2013-09-17 04:37:00,54.0,28.0,30.26,North,360,11.0,21.0,35,0.00,,,0.00,Rainwise IP-100,2013-09-17 08:37:00,
2013-09-17 04:42:00,54.0,26.0,30.26,NNE,22,19.0,19.0,34,0.00,,,0.00,Rainwise IP-100,2013-09-17 08:42:00,
2013-09-17 04:47:00,55.0,-40.0,30.26,NE,45,15.0,19.0,0,0.00,,,0.00,Rainwise IP-100,2013-09-17 08:47:00,
2013-09-17 04:53:00,54.0,28.0,30.26,North,360,4.0,19.0,35,0.00,,,0.00,Rainwise IP-100,2013-09-17 08:53:00,
2013-09-17 04:58:00,54.0,29.0,30.26,NW,315,3.0,16.0,38,0.00,,,0.00,Rainwise IP-100,2013-09-17 08:58:00,
2013-09-17 05:03:00,54.0,26.0,30.26,NE,45,12.0,17.0,34,0.00,,,0.00,Rainwise IP-100,2013-09-17 09:03:00,
2013-09-17 05:08:00,54.0,26.0,30.26,NNE,22,7.0,17.0,34,0.00,,,0.00,Rainwise IP-100,2013-09-17 09:08:00,
2013-09-17 05:13:00,54.0,32.0,30.26,North,360,1.0,19.0,43,0.00,,,0.00,Rainwise IP-100,2013-09-17 09:13:00,
2013-09-17 05:18:00,55.0,-40.0,30.27,North,360,6.0,16.0,0,0.00,,,0.00,Rainwise IP-100,2013-09-17 09:18:00,
2013-09-17 05:23:00,54.0,29.0,30.27,North,360,7.0,16.0,39,0.00,,,0.00,Rainwise IP-100,2013-09-17 09:23:00,
2013-09-17 05:28:00,55.0,-40.0,30.27,West,270,0.0,15.0,0,0.00,,,0.00,Rainwise IP-100,2013-09-17 09:28:00,
2013-09-17 05:33:00,54.0,31.0,30.27,NE,45,9.0,15.0,40,0.00,,,0.00,Rainwise IP-100,2013-09-17 09:33:00,
2013-09-17 05:38:00,54.0,31.0,30.27,ENE,67,15.0,17.0,41,0.00,,,0.00,Rainwise IP-100,2013-09-17 09:38:00,
2013-09-17 05:43:00,55.0,-6.0,30.27,NE,45,7.0,20.0,7,0.00,,,0.00,Rainwise IP-100,2013-09-17 09:43:00,
2013-09-17 05:48:00,54.0,32.0,30.27,North,360,7.0,18.0,42,0.00,,,0.00,Rainwise IP-100,2013-09-17 09:48:00,
2013-09-17 05:53:00,54.0,32.0,30.27,NNE,22,15.0,16.0,43,0.00,,,0.00,Rainwise IP-100,2013-09-17 09:53:00,
2013-09-17 05:58:00,54.0,28.0,30.28,NNW,337,9.0,20.0,35,0.00,,,0.00,Rainwise IP-100,2013-09-17 09:58:00,
2013-09-17 06:03:00,54.0,29.0,30.28,NNE,22,10.0,19.0,39,0.00,,,0.00,Rainwise IP-100,2013-09-17 10:03:00,
2013-09-17 06:09:00,54.0,29.0,30.29,NNW,337,4.0,17.0,38,0.00,,,0.00,Rainwise IP-100,2013-09-17 10:09:00,
2013-09-17 06:14:00,54.0,29.0,30.29,NNW,337,3.0,17.0,39,0.00,,,0.00,Rainwise IP-100,2013-09-17 10:14:00,
2013-09-17 06:19:00,54.0,32.0,30.29,NNE,22,7.0,19.0,44,0.00,,,0.00,Rainwise IP-100,2013-09-17 10:19:00,
2013-09-17 06:24:00,54.0,32.0,30.29,NE,45,7.0,22.0,43,0.00,,,0.00,Rainwise IP-100,2013-09-17 10:24:00,
2013-09-17 06:29:00,54.0,32.0,30.28,NE,45,6.0,19.0,44,0.00,,,0.00,Rainwise IP-100,2013-09-17 10:29:00,
2013-09-17 06:34:00,54.0,32.0,30.28,NE,45,16.0,19.0,43,0.00,,,0.00,Rainwise IP-100,2013-09-17 10:34:00,
2013-09-17 06:39:00,54.0,35.0,30.30,NNE,22,16.0,19.0,48,0.00,,,0.00,Rainwise IP-100,2013-09-17 10:39:00,
2013-09-17 06:44:00,54.0,35.0,30.30,ESE,112,2.0,19.0,47,0.00,,,0.00,Rainwise IP-100,2013-09-17 10:44:00,
2013-09-17 06:49:00,54.0,36.0,30.30,NNE,22,1.0,19.0,49,0.00,,,0.00,Rainwise IP-100,2013-09-17 10:49:00,
2013-09-17 06:54:00,54.0,35.0,30.30,SE,135,5.0,16.0,47,0.00,,,0.00,Rainwise IP-100,2013-09-17 10:54:00,
2013-09-17 06:59:00,54.0,31.0,30.30,ENE,67,9.0,16.0,40,0.00,,,0.00,Rainwise IP-100,2013-09-17 10:59:00,
2013-09-17 07:04:00,54.0,31.0,30.30,NW,315,12.0,16.0,41,0.00,,,0.00,Rainwise IP-100,2013-09-17 11:04:00,
2013-09-17 07:09:00,54.0,41.0,30.32,NNW,337,1.0,19.0,61,0.00,,,0.00,Rainwise IP-100,2013-09-17 11:09:00,
2013-09-17 07:14:00,54.0,-40.0,30.32,NNE,22,7.0,16.0,0,0.00,,,0.00,Rainwise IP-100,2013-09-17 11:14:00,
2013-09-17 07:20:00,53.0,31.0,30.32,East,90,1.0,17.0,43,0.00,,,0.00,Rainwise IP-100,2013-09-17 11:20:00,
2013-09-17 07:25:00,54.0,-40.0,30.33,North,360,10.0,17.0,0,0.00,,,0.00,Rainwise IP-100,2013-09-17 11:25:00,
2013-09-17 07:30:00,53.0,29.0,30.33,NNE,22,12.0,18.0,39,0.00,,,0.00,Rainwise IP-100,2013-09-17 11:30:00,
2013-09-17 07:35:00,54.0,-40.0,30.34,North,360,9.0,24.0,0,0.00,,,0.00,Rainwise IP-100,2013-09-17 11:35:00,
2013-09-17 07:40:00,53.0,41.0,30.34,NNE,22,16.0,22.0,65,0.00,,,0.00,Rainwise IP-100,2013-09-17 11:40:00,
2013-09-17 07:45:00,54.0,41.0,30.34,NE,45,6.0,22.0,63,0.00,,,0.00,Rainwise IP-100,2013-09-17 11:45:00,
2013-09-17 07:50:00,54.0,31.0,30.34,NNE,22,6.0,16.0,41,0.00,,,0.00,Rainwise IP-100,2013-09-17 11:50:00,
2013-09-17 07:55:00,55.0,-40.0,30.33,North,360,17.0,17.0,0,0.00,,,0.00,Rainwise IP-100,2013-09-17 11:55:00,
2013-09-17 08:00:00,54.0,36.0,30.33,NNE,22,3.0,17.0,49,0.00,,,0.00,Rainwise IP-100,2013-09-17 12:00:00,
2013-09-17 08:05:00,54.0,29.0,30.33,North,360,13.0,27.0,39,0.00,,,0.00,Rainwise IP-100,2013-09-17 12:05:00,
2013-09-17 08:10:00,54.0,28.0,30.34,NE,45,2.0,27.0,35,0.00,,,0.00,Rainwise IP-100,2013-09-17 12:10:00,
2013-09-17 08:15:00,53.0,26.0,30.35,North,360,12.0,19.0,36,0.00,,,0.00,Rainwise IP-100,2013-09-17 12:15:00,
2013-09-17 08:21:00,53.0,26.0,30.35,NNE,22,14.0,17.0,34,0.00,,,0.00,Rainwise IP-100,2013-09-17 12:21:00,
2013-09-17 08:26:00,53.0,28.0,30.35,NNE,22,5.0,19.0,38,0.00,,,0.00,Rainwise IP-100,2013-09-17 12:26:00,
2013-09-17 08:31:00,53.0,23.0,30.36,NNE,22,3.0,15.0,31,0.00,,,0.00,Rainwise IP-100,2013-09-17 12:31:00,
2013-09-17 08:36:00,53.0,26.0,30.37,NNE,22,8.0,16.0,34,0.00,,,0.00,Rainwise IP-100,2013-09-17 12:36:00,
2013-09-17 08:41:00,53.0,24.0,30.37,NE,45,3.0,14.0,33,0.00,,,0.00,Rainwise IP-100,2013-09-17 12:41:00,
2013-09-17 08:46:00,54.0,18.0,30.37,SSE,157,1.0,18.0,24,0.00,,,0.00,Rainwise IP-100,2013-09-17 12:46:00,
2013-09-17 08:51:00,53.0,23.0,30.37,NE,45,9.0,21.0,29,0.00,,,0.00,Rainwise IP-100,2013-09-17 12:51:00,
2013-09-17 08:56:00,53.0,21.0,30.37,NE,45,12.0,19.0,28,0.00,,,0.00,Rainwise IP-100,2013-09-17 12:56:00,
2013-09-17 09:01:00,54.0,-40.0,30.37,NE,45,18.0,21.0,0,0.00,,,0.00,Rainwise IP-100,2013-09-17 13:01:00,
2013-09-17 09:06:00,53.0,23.0,30.38,NE,45,12.0,20.0,31,0.00,,,0.00,Rainwise IP-100,2013-09-17 13:06:00,
2013-09-17 09:11:00,54.0,21.0,30.38,ENE,67,5.0,22.0,25,0.00,,,0.00,Rainwise IP-100,2013-09-17 13:11:00,
2013-09-17 09:16:00,53.0,18.0,30.38,NNE,22,7.0,19.0,24,0.00,,,0.00,Rainwise IP-100,2013-09-17 13:16:00,
2013-09-17 09:21:00,54.0,-40.0,30.38,NNE,22,6.0,16.0,0,0.00,,,0.00,Rainwise IP-100,2013-09-17 13:21:00,
2013-09-17 09:26:00,53.0,23.0,30.38,NE,45,6.0,15.0,31,0.00,,,0.00,Rainwise IP-100,2013-09-17 13:26:00,
2013-09-17 09:32:00,53.0,18.0,30.38,NE,45,3.0,18.0,26,0.00,,,0.00,Rainwise IP-100,2013-09-17 13:32:00,
2013-09-17 09:37:00,54.0,-40.0,30.39,NE,45,6.0,19.0,0,0.00,,,0.00,Rainwise IP-100,2013-09-17 13:37:00,
2013-09-17 09:42:00,55.0,23.0,30.39,ENE,67,9.0,16.0,27,0.00,,,0.00,Rainwise IP-100,2013-09-17 13:42:00,
2013-09-17 09:47:00,55.0,-40.0,30.38,NE,45,12.0,16.0,0,0.00,,,0.00,Rainwise IP-100,2013-09-17 13:47:00,
2013-09-17 09:52:00,55.0,-40.0,30.38,ENE,67,12.0,16.0,0,0.00,,,0.00,Rainwise IP-100,2013-09-17 13:52:00,
2013-09-17 09:57:00,55.0,-40.0,30.38,NNE,22,5.0,16.0,0,0.00,,,0.00,Rainwise IP-100,2013-09-17 13:57:00,
2013-09-17 10:02:00,54.0,23.0,30.39,NE,45,10.0,16.0,29,0.00,,,0.00,Rainwise IP-100,2013-09-17 14:02:00,
2013-09-17 10:07:00,54.0,23.0,30.39,NNE,22,13.0,16.0,28,0.00,,,0.00,Rainwise IP-100,2013-09-17 14:07:00,
2013-09-17 10:12:00,54.0,23.0,30.39,NE,45,9.0,19.0,28,0.00,,,0.00,Rainwise IP-100,2013-09-17 14:12:00,
2013-09-17 10:17:00,54.0,18.0,30.39,North,360,7.0,19.0,23,0.00,,,0.00,Rainwise IP-100,2013-09-17 14:17:00,
2013-09-17 10:22:00,54.0,18.0,30.39,NNE,22,10.0,15.0,23,0.00,,,0.00,Rainwise IP-100,2013-09-17 14:22:00,
2013-09-17 10:27:00,55.0,18.0,30.39,NNW,337,6.0,15.0,23,0.00,,,0.00,Rainwise IP-100,2013-09-17 14:27:00,
2013-09-17 10:32:00,56.0,-40.0,30.39,NE,45,15.0,16.0,0,0.00,,,0.00,Rainwise IP-100,2013-09-17 14:32:00,
2013-09-17 10:37:00,56.0,-40.0,30.39,NE,45,13.0,16.0,0,0.00,,,0.00,Rainwise IP-100,2013-09-17 14:37:00,
2013-09-17 10:42:00,55.0,-40.0,30.40,NE,45,6.0,16.0,0,0.00,,,0.00,Rainwise IP-100,2013-09-17 14:42:00,
2013-09-17 10:47:00,54.0,21.0,30.40,East,90,6.0,22.0,26,0.00,,,0.00,Rainwise IP-100,2013-09-17 14:47:00,
2013-09-17 10:53:00,55.0,23.0,30.40,NNE,22,12.0,21.0,27,0.00,,,0.00,Rainwise IP-100,2013-09-17 14:53:00,
2013-09-17 10:58:00,54.0,24.0,30.40,NNE,22,14.0,21.0,30,0.00,,,0.00,Rainwise IP-100,2013-09-17 14:58:00,
2013-09-17 11:03:00,55.0,21.0,30.40,NNE,22,13.0,23.0,24,0.00,,,0.00,Rainwise IP-100,2013-09-17 15:03:00,
2013-09-17 11:08:00,55.0,23.0,30.40,NE,45,10.0,19.0,28,0.00,,,0.00,Rainwise IP-100,2013-09-17 15:08:00,
2013-09-17 11:13:00,55.0,18.0,30.40,ENE,67,7.0,13.0,23,0.00,,,0.00,Rainwise IP-100,2013-09-17 15:13:00,
2013-09-17 11:18:00,55.0,21.0,30.40,North,360,8.0,18.0,24,0.00,,,0.00,Rainwise IP-100,2013-09-17 15:18:00,
2013-09-17 11:23:00,55.0,21.0,30.40,NNE,22,8.0,18.0,26,0.00,,,0.00,Rainwise IP-100,2013-09-17 15:23:00,
2013-09-17 11:28:00,55.0,23.0,30.40,North,360,6.0,17.0,28,0.00,,,0.00,Rainwise IP-100,2013-09-17 15:28:00,
2013-09-17 11:33:00,56.0,-40.0,30.40,NE,45,10.0,20.0,0,0.00,,,0.00,Rainwise IP-100,2013-09-17 15:33:00,
2013-09-17 11:38:00,56.0,11.0,30.40,ENE,67,12.0,19.0,16,0.00,,,0.00,Rainwise IP-100,2013-09-17 15:38:00,
2013-09-17 11:43:00,55.0,11.0,30.40,NNE,22,17.0,18.0,15,0.00,,,0.00,Rainwise IP-100,2013-09-17 15:43:00,
2013-09-17 11:48:00,55.0,21.0,30.40,East,90,10.0,20.0,26,0.00,,,0.00,Rainwise IP-100,2013-09-17 15:48:00,
2013-09-17 11:53:00,56.0,18.0,30.40,North,360,7.0,22.0,23,0.00,,,0.00,Rainwise IP-100,2013-09-17 15:53:00,
2013-09-17 11:58:00,55.0,-40.0,30.39,NE,45,6.0,17.0,0,0.00,,,0.00,Rainwise IP-100,2013-09-17 15:58:00,
2013-09-17 12:03:00,55.0,-40.0,30.39,ENE,67,8.0,22.0,0,0.00,,,0.00,Rainwise IP-100,2013-09-17 16:03:00,
2013-09-17 12:09:00,55.0,-40.0,30.40,NNW,337,2.0,18.0,0,0.00,,,0.00,Rainwise IP-100,2013-09-17 16:09:00,
2013-09-17 12:14:00,56.0,18.0,30.40,NNE,22,11.0,20.0,23,0.00,,,0.00,Rainwise IP-100,2013-09-17 16:14:00,
2013-09-17 12:19:00,55.0,8.0,30.40,NNE,22,12.0,20.0,14,0.00,,,0.00,Rainwise IP-100,2013-09-17 16:19:00,
2013-09-17 12:24:00,55.0,18.0,30.40,NNE,22,9.0,19.0,23,0.00,,,0.00,Rainwise IP-100,2013-09-17 16:24:00,
2013-09-17 12:29:00,55.0,8.0,30.39,NE,45,9.0,19.0,13,0.00,,,0.00,Rainwise IP-100,2013-09-17 16:29:00,
2013-09-17 12:34:00,55.0,8.0,30.39,ENE,67,10.0,15.0,13,0.00,,,0.00,Rainwise IP-100,2013-09-17 16:34:00,
2013-09-17 12:39:00,56.0,-40.0,30.39,NE,45,15.0,15.0,0,0.00,,,0.00,Rainwise IP-100,2013-09-17 16:39:00,
2013-09-17 12:44:00,56.0,18.0,30.39,North,360,7.0,19.0,22,0.00,,,0.00,Rainwise IP-100,2013-09-17 16:44:00,
2013-09-17 12:49:00,57.0,11.0,30.39,ESE,112,1.0,16.0,14,0.00,,,0.00,Rainwise IP-100,2013-09-17 16:49:00,
2013-09-17 12:54:00,56.0,-40.0,30.40,NE,45,11.0,15.0,0,0.00,,,0.00,Rainwise IP-100,2013-09-17 16:54:00,
2013-09-17 12:59:00,56.0,-40.0,30.40,East,90,9.0,22.0,0,0.00,,,0.00,Rainwise IP-100,2013-09-17 16:59:00,
2013-09-17 13:04:00,56.0,-40.0,30.40,ENE,67,10.0,20.0,0,0.00,,,0.00,Rainwise IP-100,2013-09-17 17:04:00,
2013-09-17 13:09:00,56.0,-40.0,30.39,North,360,6.0,20.0,0,0.00,,,0.00,Rainwise IP-100,2013-09-17 17:09:00,
2013-09-17 13:14:00,56.0,-40.0,30.39,NNE,22,8.0,15.0,0,0.00,,,0.00,Rainwise IP-100,2013-09-17 17:14:00,
2013-09-17 13:19:00,57.0,-40.0,30.38,NE,45,8.0,16.0,0,0.00,,,0.00,Rainwise IP-100,2013-09-17 17:19:00,
2013-09-17 13:25:00,56.0,23.0,30.38,NE,45,7.0,17.0,26,0.00,,,0.00,Rainwise IP-100,2013-09-17 17:25:00,
2013-09-17 13:30:00,55.0,24.0,30.38,NNE,22,15.0,17.0,30,0.00,,,0.00,Rainwise IP-100,2013-09-17 17:30:00,
2013-09-17 13:35:00,56.0,-40.0,30.38,NNE,22,10.0,17.0,0,0.00,,,0.00,Rainwise IP-100,2013-09-17 17:35:00,
2013-09-17 13:40:00,56.0,26.0,30.37,North,360,1.0,17.0,32,0.00,,,0.00,Rainwise IP-100,2013-09-17 17:40:00,
2013-09-17 13:45:00,56.0,26.0,30.37,ENE,67,12.0,17.0,31,0.00,,,0.00,Rainwise IP-100,2013-09-17 17:45:00,
2013-09-17 13:50:00,56.0,24.0,30.38,NE,45,9.0,18.0,29,0.00,,,0.00,Rainwise IP-100,2013-09-17 17:50:00,
2013-09-17 13:55:00,57.0,-40.0,30.37,NE,45,3.0,18.0,0,0.00,,,0.00,Rainwise IP-100,2013-09-17 17:55:00,
2013-09-17 14:00:00,56.0,24.0,30.37,ENE,67,19.0,19.0,29,0.00,,,0.00,Rainwise IP-100,2013-09-17 18:00:00,
2013-09-17 14:05:00,56.0,28.0,30.37,ENE,67,7.0,19.0,33,0.00,,,0.00,Rainwise IP-100,2013-09-17 18:05:00,
2013-09-17 14:10:00,56.0,-13.0,30.37,NE,45,13.0,19.0,5,0.00,,,0.00,Rainwise IP-100,2013-09-17 18:10:00,
2013-09-17 14:15:00,56.0,-40.0,30.37,ENE,67,7.0,19.0,0,0.00,,,0.00,Rainwise IP-100,2013-09-17 18:15:00,
2013-09-17 14:21:00,57.0,-40.0,30.37,ENE,67,9.0,16.0,0,0.00,,,0.00,Rainwise IP-100,2013-09-17 18:21:00,
2013-09-17 14:26:00,56.0,24.0,30.36,NNE,22,13.0,17.0,29,0.00,,,0.00,Rainwise IP-100,2013-09-17 18:26:00,
2013-09-17 14:31:00,56.0,14.0,30.36,NNE,22,10.0,16.0,17,0.00,,,0.00,Rainwise IP-100,2013-09-17 18:31:00,
2013-09-17 14:36:00,56.0,-40.0,30.36,ENE,67,5.0,20.0,0,0.00,,,0.00,Rainwise IP-100,2013-09-17 18:36:00,
2013-09-17 14:41:00,56.0,-40.0,30.36,NNE,22,12.0,20.0,0,0.00,,,0.00,Rainwise IP-100,2013-09-17 18:41:00,
2013-09-17 14:46:00,56.0,23.0,30.36,NE,45,7.0,17.0,27,0.00,,,0.00,Rainwise IP-100,2013-09-17 18:46:00,
2013-09-17 14:51:00,56.0,24.0,30.36,NNE,22,6.0,13.0,28,0.00,,,0.00,Rainwise IP-100,2013-09-17 18:51:00,
2013-09-17 14:56:00,56.0,-40.0,30.36,NNE,22,6.0,15.0,0,0.00,,,0.00,Rainwise IP-100,2013-09-17 18:56:00,
2013-09-17 15:01:00,57.0,-40.0,30.36,NE,45,15.0,17.0,0,0.00,,,0.00,Rainwise IP-100,2013-09-17 19:01:00,
2013-09-17 15:06:00,56.0,23.0,30.36,NE,45,10.0,19.0,26,0.00,,,0.00,Rainwise IP-100,2013-09-17 19:06:00,
2013-09-17 15:11:00,56.0,24.0,30.36,ENE,67,15.0,19.0,28,0.00,,,0.00,Rainwise IP-100,2013-09-17 19:11:00,
2013-09-17 15:16:00,56.0,23.0,30.36,NNE,22,16.0,18.0,26,0.00,,,0.00,Rainwise IP-100,2013-09-17 19:16:00,
2013-09-17 15:21:00,56.0,23.0,30.36,NNE,22,17.0,17.0,27,0.00,,,0.00,Rainwise IP-100,2013-09-17 19:21:00,
2013-09-17 15:26:00,56.0,23.0,30.36,NE,45,7.0,18.0,27,0.00,,,0.00,Rainwise IP-100,2013-09-17 19:26:00,
2013-09-17 15:31:00,56.0,-40.0,30.35,NNE,22,13.0,18.0,0,0.00,,,0.00,Rainwise IP-100,2013-09-17 19:31:00,
2013-09-17 15:37:00,56.0,23.0,30.36,NNE,22,10.0,15.0,26,0.00,,,0.00,Rainwise IP-100,2013-09-17 19:37:00,
2013-09-17 15:42:00,56.0,24.0,30.36,NE,45,7.0,20.0,28,0.00,,,0.00,Rainwise IP-100,2013-09-17 19:42:00,
2013-09-17 15:47:00,57.0,-40.0,30.35,North,360,1.0,17.0,0,0.00,,,0.00,Rainwise IP-100,2013-09-17 19:47:00,
2013-09-17 15:52:00,56.0,-40.0,30.35,NE,45,12.0,16.0,0,0.00,,,0.00,Rainwise IP-100,2013-09-17 19:52:00,
2013-09-17 15:57:00,56.0,-40.0,30.36,ENE,67,10.0,19.0,0,0.00,,,0.00,Rainwise IP-100,2013-09-17 19:57:00,
2013-09-17 16:02:00,56.0,-40.0,30.36,NE,45,3.0,19.0,0,0.00,,,0.00,Rainwise IP-100,2013-09-17 20:02:00,
2013-09-17 16:07:00,56.0,-40.0,30.36,NNE,22,16.0,16.0,0,0.00,,,0.00,Rainwise IP-100,2013-09-17 20:07:00,
2013-09-17 16:12:00,56.0,-40.0,30.36,North,360,4.0,16.0,0,0.00,,,0.00,Rainwise IP-100,2013-09-17 20:12:00,
2013-09-17 16:17:00,56.0,4.0,30.36,North,360,7.0,10.0,11,0.00,,,0.00,Rainwise IP-100,2013-09-17 20:17:00,
2013-09-17 16:22:00,56.0,-40.0,30.36,NE,45,7.0,15.0,0,0.00,,,0.00,Rainwise IP-100,2013-09-17 20:22:00,
2013-09-17 16:27:00,56.0,23.0,30.36,NNE,22,13.0,15.0,26,0.00,,,0.00,Rainwise IP-100,2013-09-17 20:27:00,
2013-09-17 16:33:00,56.0,23.0,30.36,East,90,6.0,15.0,27,0.00,,,0.00,Rainwise IP-100,2013-09-17 20:33:00,
2013-09-17 16:38:00,56.0,23.0,30.36,NNE,22,12.0,15.0,27,0.00,,,0.00,Rainwise IP-100,2013-09-17 20:38:00,
2013-09-17 16:43:00,56.0,-40.0,30.36,NNE,22,10.0,12.0,0,0.00,,,0.00,Rainwise IP-100,2013-09-17 20:43:00,
2013-09-17 16:48:00,56.0,-40.0,30.36,NNE,22,7.0,12.0,0,0.00,,,0.00,Rainwise IP-100,2013-09-17 20:48:00,
2013-09-17 16:53:00,55.0,23.0,30.36,NE,45,5.0,13.0,27,0.00,,,0.00,Rainwise IP-100,2013-09-17 20:53:00,
2013-09-17 16:58:00,56.0,-40.0,30.36,ENE,67,3.0,17.0,0,0.00,,,0.00,Rainwise IP-100,2013-09-17 20:58:00,
2013-09-17 17:03:00,55.0,21.0,30.36,NNE,22,8.0,17.0,24,0.00,,,0.00,Rainwise IP-100,2013-09-17 21:03:00,
2013-09-17 17:08:00,56.0,-40.0,30.36,North,360,9.0,12.0,0,0.00,,,0.00,Rainwise IP-100,2013-09-17 21:08:00,
2013-09-17 17:13:00,55.0,11.0,30.36,NNE,22,6.0,14.0,16,0.00,,,0.00,Rainwise IP-100,2013-09-17 21:13:00,
2013-09-17 17:18:00,55.0,24.0,30.35,NNE,22,6.0,13.0,29,0.00,,,0.00,Rainwise IP-100,2013-09-17 21:18:00,
2013-09-17 17:23:00,55.0,-40.0,30.35,North,360,11.0,17.0,0,0.00,,,0.00,Rainwise IP-100,2013-09-17 21:23:00,
2013-09-17 17:28:00,55.0,-40.0,30.34,NE,45,10.0,15.0,0,0.00,,,0.00,Rainwise IP-100,2013-09-17 21:28:00,
2013-09-17 17:33:00,55.0,24.0,30.34,NE,45,15.0,15.0,30,0.00,,,0.00,Rainwise IP-100,2013-09-17 21:33:00,
2013-09-17 17:38:00,55.0,24.0,30.35,ENE,67,1.0,15.0,30,0.00,,,0.00,Rainwise IP-100,2013-09-17 21:38:00,
2013-09-17 17:43:00,55.0,0.0,30.35,North,360,3.0,13.0,8,0.00,,,0.00,Rainwise IP-100,2013-09-17 21:43:00,
2013-09-17 17:49:00,56.0,-40.0,30.34,NE,45,12.0,15.0,0,0.00,,,0.00,Rainwise IP-100,2013-09-17 21:49:00,
2013-09-17 17:54:00,56.0,-40.0,30.34,NNE,22,14.0,15.0,0,0.00,,,0.00,Rainwise IP-100,2013-09-17 21:54:00,
2013-09-17 17:59:00,55.0,-6.0,30.34,NNE,22,5.0,16.0,6,0.00,,,0.00,Rainwise IP-100,2013-09-17 21:59:00,
2013-09-17 18:04:00,55.0,-6.0,30.34,North,360,8.0,10.0,6,0.00,,,0.00,Rainwise IP-100,2013-09-17 22:04:00,
2013-09-17 18:09:00,55.0,-40.0,30.35,NNE,22,4.0,13.0,0,0.00,,,0.00,Rainwise IP-100,2013-09-17 22:09:00,
2013-09-17 18:14:00,55.0,-40.0,30.35,North,360,9.0,11.0,0,0.00,,,0.00,Rainwise IP-100,2013-09-17 22:14:00,
2013-09-17 18:19:00,55.0,23.0,30.35,West,270,0.0,11.0,28,0.00,,,0.00,Rainwise IP-100,2013-09-17 22:19:00,
2013-09-17 18:24:00,55.0,-40.0,30.35,NNE,22,5.0,11.0,0,0.00,,,0.00,Rainwise IP-100,2013-09-17 22:24:00,
2013-09-17 18:29:00,55.0,28.0,30.35,East,90,6.0,11.0,33,0.00,,,0.00,Rainwise IP-100,2013-09-17 22:29:00,
2013-09-17 18:34:00,55.0,26.0,30.35,NNE,22,10.0,17.0,32,0.00,,,0.00,Rainwise IP-100,2013-09-17 22:34:00,
2013-09-17 18:39:00,54.0,23.0,30.35,ENE,67,5.0,17.0,29,0.00,,,0.00,Rainwise IP-100,2013-09-17 22:39:00,
2013-09-17 18:45:00,54.0,23.0,30.35,North,360,10.0,16.0,29,0.00,,,0.00,Rainwise IP-100,2013-09-17 22:45:00,
2013-09-17 18:50:00,54.0,24.0,30.35,North,360,1.0,12.0,32,0.00,,,0.00,Rainwise IP-100,2013-09-17 22:50:00,
2013-09-17 18:55:00,55.0,-40.0,30.34,North,360,1.0,11.0,0,0.00,,,0.00,Rainwise IP-100,2013-09-17 22:55:00,
2013-09-17 19:00:00,54.0,23.0,30.34,NNW,337,7.0,9.0,29,0.00,,,0.00,Rainwise IP-100,2013-09-17 23:00:00,
2013-09-17 19:05:00,55.0,-40.0,30.34,NNE,22,6.0,14.0,0,0.00,,,0.00,Rainwise IP-100,2013-09-17 23:05:00,
2013-09-17 19:10:00,54.0,26.0,30.35,ENE,67,12.0,14.0,33,0.00,,,0.00,Rainwise IP-100,2013-09-17 23:10:00,
2013-09-17 19:15:00,54.0,-40.0,30.35,NNW,337,2.0,15.0,0,0.00,,,0.00,Rainwise IP-100,2013-09-17 23:15:00,
2013-09-17 19:20:00,55.0,-40.0,30.35,NNE,22,6.0,15.0,0,0.00,,,0.00,Rainwise IP-100,2013-09-17 23:20:00,
2013-09-17 19:25:00,55.0,-40.0,30.34,NNE,22,13.0,13.0,0,0.00,,,0.00,Rainwise IP-100,2013-09-17 23:25:00,
2013-09-17 19:30:00,55.0,-40.0,30.34,North,360,9.0,15.0,0,0.00,,,0.00,Rainwise IP-100,2013-09-17 23:30:00,
2013-09-17 19:35:00,55.0,-40.0,30.35,NE,45,1.0,15.0,0,0.00,,,0.00,Rainwise IP-100,2013-09-17 23:35:00,
2013-09-17 19:41:00,55.0,-40.0,30.35,NNE,22,9.0,9.0,0,0.00,,,0.00,Rainwise IP-100,2013-09-17 23:41:00,
2013-09-17 19:46:00,55.0,-40.0,30.35,NE,45,4.0,12.0,0,0.00,,,0.00,Rainwise IP-100,2013-09-17 23:46:00,
2013-09-17 19:51:00,54.0,18.0,30.35,NNW,337,4.0,10.0,23,0.00,,,0.00,Rainwise IP-100,2013-09-17 23:51:00,
2013-09-17 19:56:00,55.0,26.0,30.35,North,360,2.0,13.0,32,0.00,,,0.00,Rainwise IP-100,2013-09-17 23:56:00,
2013-09-17 20:01:00,55.0,-40.0,30.35,NE,45,9.0,10.0,0,0.00,,,0.00,Rainwise IP-100,2013-09-18 00:01:00,
2013-09-17 20:06:00,55.0,-40.0,30.36,NNE,22,12.0,12.0,0,0.00,,,0.00,Rainwise IP-100,2013-09-18 00:06:00,
2013-09-17 20:11:00,55.0,-40.0,30.36,NNE,22,10.0,12.0,0,0.00,,,0.00,Rainwise IP-100,2013-09-18 00:11:00,
2013-09-17 20:16:00,55.0,23.0,30.36,North,360,1.0,11.0,28,0.00,,,0.00,Rainwise IP-100,2013-09-18 00:16:00,
2013-09-17 20:21:00,55.0,0.0,30.36,NE,45,6.0,10.0,10,0.00,,,0.00,Rainwise IP-100,2013-09-18 00:21:00,
2013-09-17 20:26:00,55.0,-40.0,30.36,NNW,337,4.0,11.0,0,0.00,,,0.00,Rainwise IP-100,2013-09-18 00:26:00,
2013-09-17 20:31:00,55.0,-40.0,30.36,NNW,337,7.0,11.0,0,0.00,,,0.00,Rainwise IP-100,2013-09-18 00:31:00,
2013-09-17 20:36:00,55.0,-40.0,30.36,NNE,22,1.0,11.0,0,0.00,,,0.00,Rainwise IP-100,2013-09-18 00:36:00,
2013-09-17 20:41:00,55.0,21.0,30.36,NE,45,5.0,11.0,26,0.00,,,0.00,Rainwise IP-100,2013-09-18 00:41:00,
2013-09-17 20:46:00,55.0,-40.0,30.36,North,360,2.0,11.0,0,0.00,,,0.00,Rainwise IP-100,2013-09-18 00:46:00,
2013-09-17 20:51:00,55.0,11.0,30.36,North,360,3.0,9.0,17,0.00,,,0.00,Rainwise IP-100,2013-09-18 00:51:00,
2013-09-17 20:57:00,55.0,-40.0,30.36,North,360,10.0,10.0,0,0.00,,,0.00,Rainwise IP-100,2013-09-18 00:57:00,
2013-09-17 21:02:00,56.0,-40.0,30.36,NNW,337,1.0,10.0,0,0.00,,,0.00,Rainwise IP-100,2013-09-18 01:02:00,
2013-09-17 21:07:00,56.0,-40.0,30.36,ENE,67,1.0,12.0,0,0.00,,,0.00,Rainwise IP-100,2013-09-18 01:07:00,
2013-09-17 21:12:00,56.0,-40.0,30.36,NE,45,3.0,5.0,0,0.00,,,0.00,Rainwise IP-100,2013-09-18 01:12:00,
2013-09-17 21:17:00,56.0,-40.0,30.35,NE,45,5.0,9.0,0,0.00,,,0.00,Rainwise IP-100,2013-09-18 01:17:00,
2013-09-17 21:22:00,55.0,18.0,30.35,NE,45,0.0,11.0,22,0.00,,,0.00,Rainwise IP-100,2013-09-18 01:22:00,
2013-09-17 21:27:00,56.0,-40.0,30.35,NE,45,6.0,11.0,0,0.00,,,0.00,Rainwise IP-100,2013-09-18 01:27:00,
2013-09-17 21:32:00,56.0,-40.0,30.35,East,90,0.0,10.0,0,0.00,,,0.00,Rainwise IP-100,2013-09-18 01:32:00,
2013-09-17 21:37:00,56.0,-23.0,30.35,ENE,67,0.0,10.0,2,0.00,,,0.00,Rainwise IP-100,2013-09-18 01:37:00,
2013-09-17 21:42:00,56.0,16.0,30.35,East,90,0.0,12.0,19,0.00,,,0.00,Rainwise IP-100,2013-09-18 01:42:00,
2013-09-17 21:47:00,56.0,-40.0,30.35,NE,45,7.0,11.0,0,0.00,,,0.00,Rainwise IP-100,2013-09-18 01:47:00,
2013-09-17 21:53:00,56.0,-40.0,30.35,NNE,22,2.0,11.0,0,0.00,,,0.00,Rainwise IP-100,2013-09-18 01:53:00,
2013-09-17 21:58:00,56.0,26.0,30.35,North,360,10.0,10.0,30,0.00,,,0.00,Rainwise IP-100,2013-09-18 01:58:00,
2013-09-17 22:03:00,57.0,-40.0,30.35,North,360,6.0,15.0,0,0.00,,,0.00,Rainwise IP-100,2013-09-18 02:03:00,
2013-09-17 22:08:00,57.0,-40.0,30.35,NNE,22,7.0,7.0,0,0.00,,,0.00,Rainwise IP-100,2013-09-18 02:08:00,
2013-09-17 22:13:00,57.0,-40.0,30.35,NE,45,10.0,12.0,0,0.00,,,0.00,Rainwise IP-100,2013-09-18 02:13:00,
2013-09-17 22:18:00,57.0,-40.0,30.35,NE,45,2.0,11.0,0,0.00,,,0.00,Rainwise IP-100,2013-09-18 02:18:00,
2013-09-17 22:23:00,57.0,-40.0,30.35,North,360,0.0,11.0,0,0.00,,,0.00,Rainwise IP-100,2013-09-18 02:23:00,
2013-09-17 22:28:00,57.0,-40.0,30.35,North,360,3.0,6.0,0,0.00,,,0.00,Rainwise IP-100,2013-09-18 02:28:00,
2013-09-17 22:33:00,57.0,-6.0,30.35,NE,45,6.0,9.0,7,0.00,,,0.00,Rainwise IP-100,2013-09-18 02:33:00,
2013-09-17 22:38:00,57.0,-40.0,30.35,NNE,22,1.0,13.0,0,0.00,,,0.00,Rainwise IP-100,2013-09-18 02:38:00,
2013-09-17 22:43:00,56.0,16.0,30.35,NE,45,6.0,9.0,19,0.00,,,0.00,Rainwise IP-100,2013-09-18 02:43:00,
2013-09-17 22:49:00,56.0,16.0,30.35,NNE,22,6.0,9.0,19,0.00,,,0.00,Rainwise IP-100,2013-09-18 02:49:00,
2013-09-17 22:54:00,57.0,-40.0,30.34,ENE,67,5.0,9.0,0,0.00,,,0.00,Rainwise IP-100,2013-09-18 02:54:00,
2013-09-17 22:59:00,57.0,-40.0,30.35,NNE,22,7.0,9.0,0,0.00,,,0.00,Rainwise IP-100,2013-09-18 02:59:00,
2013-09-17 23:04:00,56.0,21.0,30.35,NNE,22,4.0,11.0,24,0.00,,,0.00,Rainwise IP-100,2013-09-18 03:04:00,
2013-09-17 23:09:00,56.0,32.0,30.34,North,360,6.0,11.0,39,0.00,,,0.00,Rainwise IP-100,2013-09-18 03:09:00,
2013-09-17 23:14:00,57.0,32.0,30.34,NNE,22,2.0,11.0,39,0.00,,,0.00,Rainwise IP-100,2013-09-18 03:14:00,
2013-09-17 23:19:00,57.0,32.0,30.34,NE,45,2.0,10.0,38,0.00,,,0.00,Rainwise IP-100,2013-09-18 03:19:00,
2013-09-17 23:24:00,57.0,-40.0,30.34,ESE,112,0.0,9.0,0,0.00,,,0.00,Rainwise IP-100,2013-09-18 03:24:00,
2013-09-17 23:29:00,57.0,-40.0,30.34,North,360,2.0,9.0,0,0.00,,,0.00,Rainwise IP-100,2013-09-18 03:29:00,
2013-09-17 23:34:00,57.0,31.0,30.34,North,360,9.0,9.0,37,0.00,,,0.00,Rainwise IP-100,2013-09-18 03:34:00,
2013-09-17 23:39:00,57.0,36.0,30.34,NNE,22,6.0,9.0,44,0.00,,,0.00,Rainwise IP-100,2013-09-18 03:39:00,
2013-09-17 23:44:00,57.0,36.0,30.34,NNE,22,7.0,10.0,44,0.00,,,0.00,Rainwise IP-100,2013-09-18 03:44:00,
2013-09-17 23:49:00,56.0,35.0,30.34,NNE,22,4.0,10.0,44,0.00,,,0.00,Rainwise IP-100,2013-09-18 03:49:00,
2013-09-17 23:54:00,57.0,37.0,30.34,NNE,22,4.0,6.0,46,0.00,,,0.00,Rainwise IP-100,2013-09-18 03:54:00,
2013-09-17 23:59:00,57.0,37.0,30.34,NE,45,1.0,6.0,46,0.00,,,0.00,Rainwise IP-100,2013-09-18 03:59:00,